Location: *
(47.7167°N, 1.7333°W)
Time: 22:42:14
(UTC+00:00)

Cosmos 2278 - Pass Details

Date: 09 April 2020
Orbit: 840 x 852 km, 71.1° (Epoch: 27 May)

Event Time Altitude Azimuth Distance (km) Brightness Sun altitude
Rises 22:05:58 0° 331° (NNW) 3,407 8.1 -28.1°
Reaches altitude 10° 22:08:25 10° 331° (NNW) 2,469 7.1 -28.3°
Enters shadow 22:13:49 79° 289° (WNW) 864 3.7 -28.8°
